{"data":{"norad_id":53700,"epoch":"2026-09-20T03:16:48.037440Z","epoch_age_seconds":113664,"freshness":"FRESH","line1":"1 53700U 22107A   26263.13666710  .00002062  00000+0  69981-4 0  9992","line2":"2 53700  53.1626  87.4117 0000996  63.1602 296.9503 15.35407480224256","mean_motion":15.3540748,"eccentricity":9.96e-5,"inclination_deg":53.1626,"raan_deg":87.4117,"arg_perigee_deg":63.1602,"mean_anomaly_deg":296.9503,"bstar":6.9981e-5,"rev_number":22425,"period_min":93.786178506829,"perigee_km":459.029385218,"apogee_km":460.39148442702,"semimajor_km":6837.8474348225,"source":"CELESTRAK","updated_at":"2026-09-21T09:00:32.981377Z"}}